STARLINK-31600, 59341

Orbit data source: Space-Track

STARLINK-31600, 59341 is a payload satellite owned by SpaceX/Seattle (US) in LEO that was launched on Mon, 25 Mar 2024 UTC via an FALCON 9 launch vehicle from the Air Force Eastern Test Range (AFETR). Payload-class satellites include a variety of spacecraft equipped with specific instruments for various scientific and technological missions. These include communications satellites like Starlink; space stations such as the ISS; scientific satellites like the Hubble; Earth observation satellites from companies like Planet Labs, Umbra, and HawkEye 360; GPS; miniature CubeSats for education and research; and military/defense satellites.

Loading next visibility...
Identifier
59341, 2024-057X
Orbit
LEO
Country
Flag of USUS
Related business
Manufacturer
SpaceX/Seattle
Mission
Operational Commercial Communications
Bus & Motor
STARLINK V2M, Unknown motor
Mass
730 kg wet, ~700 kg dry
Launch date (UTC)
2024-03-25 (2 years ago)
Launch vehicle
FALCON 9
Launch site
Air Force Eastern Test Range (AFETR)
Object type
Payload
Rocket body
Debris
Shape & HBR
Box + 2 Pan, 17.7 m
Radar Cross Section
33.884 m², Large (>1 m²)

Expand to show TLE details & history
Last TLE update: 2 days ago

TLE from 2 days ago
0 STARLINK-31600
1 59341U 24057X   26171.43574837 -.00000436  00000-0 -63361-5 0  9997
2 59341  43.0046 334.5280 0001151 269.5561  90.5159 15.27574061125463
Epoch: 2026-06-20T10:27Z
TLE epoch observation values (Epoch: 2026-06-20T10:27:28.659Z)
Latitude
0.00001°
Longitude
-90.99181°
Altitude
482.85 km
Speed
7.626 km/s
True Right ascension
22h 18m 06s
True Declination
0° 00' 00"
Sunlit
Object was in full shadow at epoch
Visualization orbit readout
Latitude
Unknown
Longitude
Unknown
Altitude
Unknown
Speed
Unknown
Apparent Right ascension
Unknown
Apparent Declination
Unknown
Sunlit
N/A
Visualization observer readout
Local Sidereal Time
23:07:25
Azimuth
Unknown
Elevation
Unknown
Doppler factor
Unknown
Orbital elements
Apogee altitude
485.801 km
Perigee altitude
484.221 km
Semi-major axis
6,863.148 km
Eccentricity
0.00012
Inclination
43.0046°
RAAN
334.528°
Arg. of periapsis
269.5561°
True anomaly
90.52909°
Mean anomaly
90.5159°
Eccentric anomaly
90.52249°
Mean motion
3.81732 °/min
Orbital period
94.31 mins
BSTAR
-0.0000063361
Loading maneuver chart data...
Computing Atmospheric mass density...
Loading historical data...
Loading historical data...
Loading historical data...
Loading historical data...
Loading historical data...
Loading historical data...
Loading historical data...

Documentation

Showing up to 5 results
|